Time,TemperatureF,DewpointF,PressureIn,WindDirection,WindDirectionDegrees,WindSpeedMPH,WindSpeedGustMPH,Humidity,HourlyPrecipIn,Conditions,Clouds,dailyrainin,SoftwareType,DateUTC
2013-03-23 00:00:00,35.7,25.8,30.02,ENE,59,2.0,3.0,67,0.00,,OVC055,0.00,VWS V14.00,2013-03-23 05:00:00,
2013-03-23 00:05:00,35.7,26.2,30.03,ENE,59,2.0,3.0,68,0.00,,OVC055,0.00,VWS V14.00,2013-03-23 05:05:00,
2013-03-23 00:10:00,35.6,26.1,30.03,ENE,59,2.0,3.0,68,0.00,,OVC055,0.00,VWS V14.00,2013-03-23 05:10:00,
2013-03-23 00:15:00,35.6,26.5,30.03,ENE,59,2.0,3.0,69,0.00,,OVC055,0.00,VWS V14.00,2013-03-23 05:15:00,
2013-03-23 00:20:00,35.6,27.1,30.03,ENE,59,2.0,3.0,71,0.00,,OVC055,0.00,VWS V14.00,2013-03-23 05:20:00,
2013-03-23 00:25:00,35.5,26.7,30.03,ENE,59,2.0,2.0,70,0.00,,OVC055,0.00,VWS V14.00,2013-03-23 05:25:00,
2013-03-23 00:30:00,35.5,27.0,30.03,ENE,59,2.0,3.0,71,0.00,,OVC055,0.00,VWS V14.00,2013-03-23 05:30:00,
2013-03-23 00:35:00,35.5,26.7,30.02,ENE,59,1.0,3.0,70,0.00,,OVC055,0.00,VWS V14.00,2013-03-23 05:35:00,
2013-03-23 00:40:00,35.4,26.3,30.03,ENE,59,0.0,3.0,69,0.00,,OVC047,0.00,VWS V14.00,2013-03-23 05:40:00,
2013-03-23 00:45:00,35.5,26.4,30.03,ENE,59,0.0,3.0,69,0.00,,OVC047,0.00,VWS V14.00,2013-03-23 05:45:00,
2013-03-23 00:50:00,35.5,26.4,30.03,ENE,59,0.0,3.0,69,0.00,,OVC047,0.00,VWS V14.00,2013-03-23 05:50:00,
2013-03-23 00:55:00,35.4,26.3,30.03,ENE,59,0.0,0.0,69,0.00,,OVC047,0.00,VWS V14.00,2013-03-23 05:55:00,
2013-03-23 01:00:00,35.5,26.4,30.03,ENE,59,0.0,0.0,69,0.00,,OVC045,0.00,VWS V14.00,2013-03-23 06:00:00,
2013-03-23 01:05:00,35.5,26.4,30.03,ENE,59,0.0,0.0,69,0.00,,OVC045,0.00,VWS V14.00,2013-03-23 06:05:00,
2013-03-23 01:10:00,35.5,27.0,30.03,ENE,59,0.0,0.0,71,0.00,,OVC045,0.00,VWS V14.00,2013-03-23 06:10:00,
2013-03-23 01:14:00,35.4,27.0,30.02,ENE,59,0.0,1.0,71,0.00,,OVC045,0.00,VWS V14.00,2013-03-23 06:14:00,
2013-03-23 01:19:00,35.4,26.6,30.02,ENE,59,0.0,1.0,70,0.00,,OVC043,0.00,VWS V14.00,2013-03-23 06:19:00,
2013-03-23 01:24:00,35.4,26.3,30.02,East,81,3.0,3.0,69,0.00,,OVC043,0.00,VWS V14.00,2013-03-23 06:24:00,
2013-03-23 01:29:00,35.4,25.9,30.02,ENE,61,2.0,4.0,68,0.00,,OVC043,0.00,VWS V14.00,2013-03-23 06:29:00,
2013-03-23 01:30:00,35.4,26.6,30.02,East,81,0.0,4.0,70,0.00,,OVC041,0.00,VWS V14.00,2013-03-23 06:30:00,
2013-03-23 01:34:00,35.4,25.9,30.03,ENE,61,0.0,4.0,68,0.00,,OVC043,0.00,VWS V14.00,2013-03-23 06:34:00,
2013-03-23 01:39:00,35.4,25.9,30.03,ENE,61,2.0,4.0,68,0.00,,OVC041,0.00,VWS V14.00,2013-03-23 06:39:00,
2013-03-23 01:44:00,35.4,25.9,30.02,ENE,61,2.0,4.0,68,0.00,,OVC041,0.00,VWS V14.00,2013-03-23 06:44:00,
2013-03-23 01:49:00,35.5,26.7,30.02,ENE,61,0.0,4.0,70,0.00,,OVC041,0.00,VWS V14.00,2013-03-23 06:49:00,
2013-03-23 01:54:00,35.4,26.3,30.02,ENE,61,0.0,2.0,69,0.00,,OVC041,0.00,VWS V14.00,2013-03-23 06:54:00,
2013-03-23 01:59:00,35.4,25.5,30.02,ENE,61,0.0,2.0,67,0.00,,OVC043,0.00,VWS V14.00,2013-03-23 06:59:00,
2013-03-23 02:00:00,35.5,26.4,30.02,ENE,61,1.0,4.0,69,0.00,,OVC041,0.00,VWS V14.00,2013-03-23 07:00:00,
2013-03-23 02:04:00,35.4,25.5,30.01,ENE,61,2.0,2.0,67,0.00,,OVC043,0.00,VWS V14.00,2013-03-23 07:04:00,
2013-03-23 02:09:00,35.4,25.9,30.01,ENE,61,0.0,2.0,68,0.00,,OVC043,0.00,VWS V14.00,2013-03-23 07:09:00,
2013-03-23 02:14:00,35.4,25.9,30.01,ENE,61,0.0,3.0,68,0.00,,OVC043,0.00,VWS V14.00,2013-03-23 07:14:00,
2013-03-23 02:19:00,35.4,25.9,30.02,ENE,61,0.0,3.0,68,0.00,,OVC045,0.00,VWS V14.00,2013-03-23 07:19:00,
2013-03-23 02:24:00,35.3,26.2,30.01,ENE,61,2.0,2.0,69,0.00,,OVC045,0.00,VWS V14.00,2013-03-23 07:24:00,
2013-03-23 02:29:00,35.3,26.5,30.01,ENE,61,2.0,4.0,70,0.00,,OVC045,0.00,VWS V14.00,2013-03-23 07:29:00,
2013-03-23 02:30:00,35.4,26.3,30.02,ENE,61,0.0,3.0,69,0.00,,OVC041,0.00,VWS V14.00,2013-03-23 07:30:00,
2013-03-23 02:34:00,35.3,26.5,30.01,ENE,61,1.0,4.0,70,0.00,,OVC045,0.00,VWS V14.00,2013-03-23 07:34:00,
2013-03-23 02:39:00,35.3,26.9,30.01,ENE,61,2.0,4.0,71,0.00,,OVC043,0.00,VWS V14.00,2013-03-23 07:39:00,
2013-03-23 02:44:00,35.3,26.9,30.01,ENE,61,2.0,4.0,71,0.00,,OVC043,0.00,VWS V14.00,2013-03-23 07:44:00,
2013-03-23 02:49:00,35.3,27.2,30.01,ENE,61,0.0,4.0,72,0.00,,OVC043,0.00,VWS V14.00,2013-03-23 07:49:00,
2013-03-23 02:54:00,35.3,27.5,30.00,ENE,61,0.0,2.0,73,0.00,,OVC043,0.00,VWS V14.00,2013-03-23 07:54:00,
2013-03-23 02:59:00,35.2,27.1,30.00,ENE,61,1.0,3.0,72,0.00,,OVC041,0.00,VWS V14.00,2013-03-23 07:59:00,
2013-03-23 03:00:00,35.3,27.2,30.01,ENE,61,1.0,4.0,72,0.00,,OVC041,0.00,VWS V14.00,2013-03-23 08:00:00,
2013-03-23 03:04:00,35.2,26.4,30.01,ENE,61,0.0,3.0,70,0.00,,OVC041,0.00,VWS V14.00,2013-03-23 08:04:00,
2013-03-23 03:09:00,35.2,26.4,30.01,ENE,61,0.0,3.0,70,0.00,,OVC041,0.00,VWS V14.00,2013-03-23 08:09:00,
2013-03-23 03:14:00,35.2,26.4,30.01,ENE,61,0.0,3.0,70,0.00,,OVC041,0.00,VWS V14.00,2013-03-23 08:14:00,
2013-03-23 03:19:00,35.2,26.4,30.01,ENE,61,0.0,3.0,70,0.00,,OVC041,0.00,VWS V14.00,2013-03-23 08:19:00,
2013-03-23 03:24:00,35.2,26.8,30.01,ENE,61,1.0,1.0,71,0.00,,OVC041,0.00,VWS V14.00,2013-03-23 08:24:00,
2013-03-23 03:29:00,35.2,26.8,30.00,ENE,61,0.0,3.0,71,0.00,,OVC041,0.00,VWS V14.00,2013-03-23 08:29:00,
2013-03-23 03:30:00,35.2,26.4,30.01,ENE,61,0.0,3.0,70,0.00,,OVC041,0.00,VWS V14.00,2013-03-23 08:30:00,
2013-03-23 03:34:00,35.2,27.1,30.00,ENE,61,1.0,3.0,72,0.00,,OVC041,0.00,VWS V14.00,2013-03-23 08:34:00,
2013-03-23 03:39:00,35.2,27.4,30.00,NE,55,3.0,4.0,73,0.00,,OVC041,0.00,VWS V14.00,2013-03-23 08:39:00,
2013-03-23 03:44:00,35.1,26.7,30.00,NE,55,1.0,4.0,71,0.00,,OVC041,0.00,VWS V14.00,2013-03-23 08:44:00,
2013-03-23 03:49:00,35.1,26.3,30.00,NE,46,2.0,4.0,70,0.00,,OVC041,0.00,VWS V14.00,2013-03-23 08:49:00,
2013-03-23 03:54:00,35.1,26.3,29.99,NE,46,1.0,3.0,70,0.00,,OVC041,0.00,VWS V14.00,2013-03-23 08:54:00,
2013-03-23 03:59:00,35.2,26.4,30.00,NE,46,0.0,4.0,70,0.00,,OVC041,0.00,VWS V14.00,2013-03-23 08:59:00,
2013-03-23 04:00:00,35.1,26.3,29.99,NE,46,2.0,4.0,70,0.00,,OVC041,0.00,VWS V14.00,2013-03-23 09:00:00,
2013-03-23 04:04:00,35.2,26.8,29.99,NE,46,2.0,4.0,71,0.00,,OVC041,0.00,VWS V14.00,2013-03-23 09:04:00,
2013-03-23 04:09:00,35.2,26.8,29.99,NE,46,2.0,4.0,71,0.00,,OVC041,0.00,VWS V14.00,2013-03-23 09:09:00,
2013-03-23 04:14:00,35.2,26.8,30.00,NE,46,3.0,5.0,71,0.00,,OVC041,0.00,VWS V14.00,2013-03-23 09:14:00,
2013-03-23 04:30:00,35.2,26.8,29.99,NE,45,2.0,5.0,71,0.00,,OVC041,0.00,VWS V14.00,2013-03-23 09:30:00,
2013-03-23 05:00:00,35.1,26.3,29.99,NE,45,3.0,6.0,70,0.00,,OVC041,0.00,VWS V14.00,2013-03-23 10:00:00,
2013-03-23 05:30:00,34.8,26.0,30.00,NE,45,3.0,6.0,70,0.00,,OVC041,0.00,VWS V14.00,2013-03-23 10:30:00,
2013-03-23 06:00:00,34.4,25.6,30.01,NE,45,2.0,6.0,70,0.00,,OVC041,0.00,VWS V14.00,2013-03-23 11:00:00,
2013-03-23 06:30:00,34.3,25.9,30.02,NE,45,3.0,5.0,71,0.00,,OVC041,0.00,VWS V14.00,2013-03-23 11:30:00,
2013-03-23 07:19:00,34.3,25.9,30.02,NE,45,3.0,5.0,71,0.00,,OVC041,0.00,VWS V14.00,2013-03-23 12:19:00,
2013-03-23 07:24:00,34.6,26.9,30.03,NE,47,4.0,4.0,73,0.00,,,0.00,VWS V14.00,2013-03-23 12:24:00,
2013-03-23 07:29:00,34.6,27.2,30.03,NE,48,2.0,5.0,74,0.00,,,0.00,VWS V14.00,2013-03-23 12:29:00,
2013-03-23 07:30:00,34.6,26.9,30.03,NE,47,4.0,4.0,73,0.00,,,0.00,VWS V14.00,2013-03-23 12:30:00,
2013-03-23 07:34:00,34.7,27.0,30.03,NE,48,1.0,5.0,73,0.00,,,0.00,VWS V14.00,2013-03-23 12:34:00,
2013-03-23 07:39:00,34.7,27.0,30.03,NE,48,2.0,5.0,73,0.00,,,0.00,VWS V14.00,2013-03-23 12:39:00,
2013-03-23 07:44:00,34.8,27.0,30.03,NE,48,1.0,5.0,73,0.00,,,0.00,VWS V14.00,2013-03-23 12:44:00,
2013-03-23 07:49:00,34.9,26.8,30.03,NE,44,2.0,5.0,72,0.00,,,0.00,VWS V14.00,2013-03-23 12:49:00,
2013-03-23 07:54:00,35.0,26.9,30.04,NE,54,0.0,1.0,72,0.00,,,0.00,VWS V14.00,2013-03-23 12:54:00,
2013-03-23 07:59:00,35.1,26.7,30.03,NE,56,2.0,3.0,71,0.00,,OVC041,0.00,VWS V14.00,2013-03-23 12:59:00,
2013-03-23 08:00:00,34.9,26.8,30.03,NE,53,1.0,5.0,72,0.00,,,0.00,VWS V14.00,2013-03-23 13:00:00,
2013-03-23 08:04:00,35.2,26.8,30.03,NE,55,4.0,5.0,71,0.00,,OVC041,0.00,VWS V14.00,2013-03-23 13:04:00,
2013-03-23 08:09:00,35.3,26.9,30.03,ENE,69,2.0,5.0,71,0.00,,OVC041,0.00,VWS V14.00,2013-03-23 13:09:00,
2013-03-23 08:14:00,35.4,26.6,30.03,ENE,69,2.0,5.0,70,0.00,,OVC041,0.00,VWS V14.00,2013-03-23 13:14:00,
2013-03-23 08:19:00,35.6,27.5,30.03,ENE,69,2.0,5.0,72,0.00,,OVC041,0.00,VWS V14.00,2013-03-23 13:19:00,
2013-03-23 08:24:00,35.7,27.2,30.03,NE,36,3.0,5.0,71,0.00,,OVC041,0.00,VWS V14.00,2013-03-23 13:24:00,
2013-03-23 08:29:00,35.9,27.4,30.03,NE,38,3.0,5.0,71,0.00,,OVC041,0.00,VWS V14.00,2013-03-23 13:29:00,
2013-03-23 08:30:00,35.6,27.5,30.03,NE,38,4.0,5.0,72,0.00,,,0.00,VWS V14.00,2013-03-23 13:30:00,
2013-03-23 08:34:00,36.0,26.8,30.03,NE,48,3.0,6.0,69,0.00,,OVC041,0.00,VWS V14.00,2013-03-23 13:34:00,
2013-03-23 08:39:00,36.2,27.7,30.03,NE,45,2.0,6.0,71,0.00,,OVC041,0.00,VWS V14.00,2013-03-23 13:39:00,
2013-03-23 08:44:00,36.4,27.2,30.03,NNE,31,3.0,6.0,69,0.00,,OVC041,0.00,VWS V14.00,2013-03-23 13:44:00,
2013-03-23 08:49:00,36.6,27.0,30.03,NE,55,2.0,6.0,68,0.00,,OVC041,0.00,VWS V14.00,2013-03-23 13:49:00,
2013-03-23 08:54:00,36.8,26.5,30.04,ENE,74,3.0,4.0,66,0.00,,OVC041,0.00,VWS V14.00,2013-03-23 13:54:00,
2013-03-23 08:59:00,37.0,27.1,30.03,ENE,57,1.0,5.0,67,0.00,,OVC041,0.00,VWS V14.00,2013-03-23 13:59:00,
2013-03-23 09:00:00,36.7,27.1,30.04,ENE,57,1.0,6.0,68,0.00,,,0.00,VWS V14.00,2013-03-23 14:00:00,
2013-03-23 09:04:00,37.4,27.1,30.03,NE,47,0.0,6.0,66,0.00,,OVC041,0.00,VWS V14.00,2013-03-23 14:04:00,
2013-03-23 09:09:00,37.6,26.9,30.03,NE,46,6.0,9.0,65,0.00,,OVC041,0.00,VWS V14.00,2013-03-23 14:09:00,
2013-03-23 09:14:00,37.8,27.1,30.03,ENE,59,5.0,9.0,65,0.00,,OVC041,0.00,VWS V14.00,2013-03-23 14:14:00,
2013-03-23 09:19:00,37.9,27.2,30.03,ENE,69,2.0,9.0,65,0.00,,OVC043,0.00,VWS V14.00,2013-03-23 14:19:00,
2013-03-23 09:24:00,38.3,26.4,30.03,East,89,4.0,5.0,62,0.00,,OVC043,0.00,VWS V14.00,2013-03-23 14:24:00,
2013-03-23 09:29:00,38.6,26.7,30.03,ENE,58,5.0,7.0,62,0.00,,OVC043,0.00,VWS V14.00,2013-03-23 14:29:00,
2013-03-23 09:30:00,38.1,27.0,30.03,NNE,32,4.0,9.0,64,0.00,,,0.00,VWS V14.00,2013-03-23 14:30:00,
2013-03-23 09:34:00,39.0,26.7,30.03,NE,34,6.0,7.0,61,0.00,,OVC043,0.00,VWS V14.00,2013-03-23 14:34:00,
2013-03-23 09:39:00,39.9,27.6,30.02,NE,40,1.0,10.0,61,0.00,,OVC045,0.00,VWS V14.00,2013-03-23 14:39:00,
2013-03-23 09:44:00,40.8,26.8,30.02,NE,40,6.0,10.0,57,0.00,,OVC045,0.00,VWS V14.00,2013-03-23 14:44:00,
2013-03-23 09:49:00,41.3,26.8,30.02,ENE,59,4.0,10.0,56,0.00,,OVC045,0.00,VWS V14.00,2013-03-23 14:49:00,
2013-03-23 09:54:00,41.5,27.0,30.02,NE,49,12.0,12.0,56,0.00,,OVC045,0.00,VWS V14.00,2013-03-23 14:54:00,
2013-03-23 09:59:00,41.5,25.7,30.01,NNE,26,7.0,13.0,53,0.00,,OVC060,0.00,VWS V14.00,2013-03-23 14:59:00,
2013-03-23 10:00:00,41.4,26.5,30.02,ENE,61,7.0,11.0,55,0.00,,,0.00,VWS V14.00,2013-03-23 15:00:00,
2013-03-23 10:04:00,41.4,25.6,30.01,ENE,69,3.0,13.0,53,0.00,,OVC060,0.00,VWS V14.00,2013-03-23 15:04:00,
2013-03-23 10:09:00,41.6,24.8,30.02,East,82,4.0,13.0,51,0.00,,OVC060,0.00,VWS V14.00,2013-03-23 15:09:00,
2013-03-23 10:14:00,41.7,24.0,30.01,ENE,71,4.0,13.0,49,0.00,,OVC060,0.00,VWS V14.00,2013-03-23 15:14:00,
2013-03-23 10:19:00,41.8,24.1,30.02,NNE,26,10.0,13.0,49,0.00,,OVC060,0.00,VWS V14.00,2013-03-23 15:19:00,
2013-03-23 10:24:00,41.8,24.1,30.02,NE,35,8.0,11.0,49,0.00,,OVC060,0.00,VWS V14.00,2013-03-23 15:24:00,
2013-03-23 10:29:00,41.9,24.6,30.02,ESE,104,7.0,12.0,50,0.00,,OVC060,0.00,VWS V14.00,2013-03-23 15:29:00,
2013-03-23 10:30:00,41.8,24.1,30.02,NE,36,7.0,13.0,49,0.00,,,0.00,VWS V14.00,2013-03-23 15:30:00,
2013-03-23 10:34:00,42.2,25.4,30.02,ENE,60,3.0,12.0,51,0.00,,OVC060,0.00,VWS V14.00,2013-03-23 15:34:00,
2013-03-23 10:39:00,43.0,24.7,30.01,ENE,68,5.0,12.0,48,0.00,,OVC047,0.00,VWS V14.00,2013-03-23 15:39:00,
2013-03-23 10:44:00,43.7,25.3,30.01,ENE,62,1.0,12.0,48,0.00,,OVC047,0.00,VWS V14.00,2013-03-23 15:44:00,
2013-03-23 10:49:00,44.6,26.1,30.01,East,98,2.0,12.0,48,0.00,,OVC047,0.00,VWS V14.00,2013-03-23 15:49:00,
2013-03-23 10:54:00,45.2,27.2,30.01,NNE,28,12.0,14.0,49,0.00,,OVC047,0.00,VWS V14.00,2013-03-23 15:54:00,
2013-03-23 10:59:00,45.1,27.1,30.00,NNE,15,9.0,14.0,49,0.00,,OVC060,0.00,VWS V14.00,2013-03-23 15:59:00,
2013-03-23 11:00:00,44.8,26.8,30.01,NE,47,2.0,12.0,49,0.00,,,0.00,VWS V14.00,2013-03-23 16:00:00,
2013-03-23 11:04:00,45.4,26.9,30.01,NE,35,8.0,14.0,48,0.00,,OVC060,0.00,VWS V14.00,2013-03-23 16:04:00,
2013-03-23 11:09:00,46.1,26.5,30.01,SE,128,1.0,14.0,46,0.00,,OVC060,0.00,VWS V14.00,2013-03-23 16:09:00,
2013-03-23 11:14:00,46.2,28.1,30.01,NNE,33,7.0,14.0,49,0.00,,OVC060,0.00,VWS V14.00,2013-03-23 16:14:00,
2013-03-23 11:19:00,46.3,27.2,30.01,NE,53,5.0,14.0,47,0.00,,OVC060,0.00,VWS V14.00,2013-03-23 16:19:00,
2013-03-23 11:24:00,46.1,26.5,30.01,NNE,30,8.0,9.0,46,0.00,,OVC060,0.00,VWS V14.00,2013-03-23 16:24:00,
2013-03-23 11:29:00,46.1,26.5,30.01,NE,37,4.0,14.0,46,0.00,,OVC060,0.00,VWS V14.00,2013-03-23 16:29:00,
2013-03-23 11:30:00,46.1,27.0,30.01,East,98,7.0,14.0,47,0.00,,,0.00,VWS V14.00,2013-03-23 16:30:00,
2013-03-23 11:34:00,46.2,25.5,30.01,ENE,58,5.0,14.0,44,0.00,,OVC060,0.00,VWS V14.00,2013-03-23 16:34:00,
2013-03-23 11:39:00,46.3,25.6,30.01,East,101,4.0,14.0,44,0.00,,BKN060,0.00,VWS V14.00,2013-03-23 16:39:00,
2013-03-23 11:44:00,46.1,25.4,30.01,NE,40,6.0,14.0,44,0.00,,BKN060,0.00,VWS V14.00,2013-03-23 16:44:00,
2013-03-23 11:49:00,46.2,27.1,30.01,NE,48,4.0,14.0,47,0.00,,BKN060,0.00,VWS V14.00,2013-03-23 16:49:00,
2013-03-23 11:54:00,47.0,27.8,30.01,NE,42,9.0,11.0,47,0.00,,BKN060,0.00,VWS V14.00,2013-03-23 16:54:00,
2013-03-23 11:59:00,47.5,26.7,30.01,NE,40,8.0,11.0,44,0.00,,BKN060,0.00,VWS V14.00,2013-03-23 16:59:00,
2013-03-23 12:00:00,46.4,27.3,30.01,ENE,71,2.0,14.0,47,0.00,,,0.00,VWS V14.00,2013-03-23 17:00:00,
2013-03-23 12:04:00,47.9,28.1,30.01,ESE,112,4.0,11.0,46,0.00,,BKN060,0.00,VWS V14.00,2013-03-23 17:04:00,
2013-03-23 12:09:00,48.3,29.0,30.01,ENE,62,2.0,11.0,47,0.00,,BKN060,0.00,VWS V14.00,2013-03-23 17:09:00,
2013-03-23 12:14:00,48.8,27.9,30.00,East,91,4.0,11.0,44,0.00,,BKN060,0.00,VWS V14.00,2013-03-23 17:14:00,
2013-03-23 12:19:00,49.3,28.3,30.00,East,81,6.0,11.0,44,0.00,,,0.00,VWS V14.00,2013-03-23 17:19:00,
2013-03-23 12:24:00,48.7,27.2,30.00,ENE,74,4.0,7.0,43,0.00,,,0.00,VWS V14.00,2013-03-23 17:24:00,
2013-03-23 12:29:00,48.7,27.8,29.99,NNE,12,4.0,7.0,44,0.00,,,0.00,VWS V14.00,2013-03-23 17:29:00,
2013-03-23 12:30:00,49.0,27.5,30.00,ESE,107,2.0,11.0,43,0.00,,,0.00,VWS V14.00,2013-03-23 17:30:00,
2013-03-23 12:34:00,49.0,27.5,29.99,ENE,78,3.0,9.0,43,0.00,,,0.00,VWS V14.00,2013-03-23 17:34:00,
2013-03-23 12:39:00,49.1,28.7,29.98,ENE,67,4.0,11.0,45,0.00,,SCT060,0.00,VWS V14.00,2013-03-23 17:39:00,
2013-03-23 12:44:00,49.4,29.5,29.98,NNE,30,7.0,12.0,46,0.00,,SCT060,0.00,VWS V14.00,2013-03-23 17:44:00,
2013-03-23 12:49:00,49.7,28.7,29.97,NE,51,5.0,12.0,44,0.00,,SCT060,0.00,VWS V14.00,2013-03-23 17:49:00,
2013-03-23 12:54:00,49.9,29.4,29.97,NE,46,4.0,10.0,45,0.00,,SCT060,0.00,VWS V14.00,2013-03-23 17:54:00,
2013-03-23 12:59:00,49.9,30.5,29.97,NE,40,7.0,11.0,47,0.00,,CLR,0.00,VWS V14.00,2013-03-23 17:59:00,
2013-03-23 13:00:00,49.8,29.9,29.97,NE,35,4.0,14.0,46,0.00,,,0.00,VWS V14.00,2013-03-23 18:00:00,
2013-03-23 13:04:00,50.5,31.0,29.96,NNE,22,7.0,12.0,47,0.00,,CLR,0.00,VWS V14.00,2013-03-23 18:04:00,
2013-03-23 13:09:00,50.5,29.4,29.96,SSE,149,5.0,12.0,44,0.00,,CLR,0.00,VWS V14.00,2013-03-23 18:09:00,
2013-03-23 13:14:00,50.8,29.1,29.97,ENE,73,5.0,12.0,43,0.00,,CLR,0.00,VWS V14.00,2013-03-23 18:14:00,
2013-03-23 13:19:00,50.8,31.8,29.96,ENE,64,5.0,12.0,48,0.00,,CLR,0.00,VWS V14.00,2013-03-23 18:19:00,
2013-03-23 13:24:00,51.4,30.2,29.96,ENE,72,4.0,10.0,44,0.00,,CLR,0.00,VWS V14.00,2013-03-23 18:24:00,
2013-03-23 13:29:00,51.4,31.3,29.95,NNE,32,8.0,10.0,46,0.00,,CLR,0.00,VWS V14.00,2013-03-23 18:29:00,
2013-03-23 13:30:00,51.1,31.1,29.96,East,98,6.0,12.0,46,0.00,,,0.00,VWS V14.00,2013-03-23 18:30:00,
2013-03-23 13:34:00,51.6,32.0,29.95,NE,42,5.0,10.0,47,0.00,,CLR,0.00,VWS V14.00,2013-03-23 18:34:00,
2013-03-23 13:39:00,51.9,32.3,29.94,NE,49,7.0,14.0,47,0.00,,CLR,0.00,VWS V14.00,2013-03-23 18:39:00,
2013-03-23 13:44:00,52.4,32.2,29.94,NE,39,7.0,14.0,46,0.00,,CLR,0.00,VWS V14.00,2013-03-23 18:44:00,
2013-03-23 13:49:00,52.1,32.0,29.94,NNE,28,10.0,14.0,46,0.00,,CLR,0.00,VWS V14.00,2013-03-23 18:49:00,
2013-03-23 13:54:00,52.5,32.3,29.94,NE,34,13.0,13.0,46,0.00,,CLR,0.00,VWS V14.00,2013-03-23 18:54:00,
2013-03-23 13:59:00,52.6,31.9,29.94,NE,42,6.0,14.0,45,0.00,,CLR,0.00,VWS V14.00,2013-03-23 18:59:00,
2013-03-23 14:00:00,52.1,33.5,29.94,NNE,31,9.0,14.0,49,0.00,,,0.00,VWS V14.00,2013-03-23 19:00:00,
2013-03-23 14:04:00,52.9,32.2,29.93,NNE,15,8.0,15.0,45,0.00,,CLR,0.00,VWS V14.00,2013-03-23 19:04:00,
2013-03-23 14:09:00,52.9,32.2,29.93,NNE,26,9.0,16.0,45,0.00,,CLR,0.00,VWS V14.00,2013-03-23 19:09:00,
2013-03-23 14:14:00,53.0,32.2,29.92,NE,42,2.0,16.0,45,0.00,,CLR,0.00,VWS V14.00,2013-03-23 19:14:00,
2013-03-23 14:19:00,53.1,31.8,29.92,East,96,5.0,16.0,44,0.00,,CLR,0.00,VWS V14.00,2013-03-23 19:19:00,
2013-03-23 14:24:00,53.0,33.3,29.92,NNE,32,8.0,13.0,47,0.00,,CLR,0.00,VWS V14.00,2013-03-23 19:24:00,
2013-03-23 14:29:00,53.1,32.3,29.91,NE,36,7.0,15.0,45,0.00,,CLR,0.00,VWS V14.00,2013-03-23 19:29:00,
2013-03-23 14:30:00,52.9,31.0,29.92,East,92,5.0,16.0,43,0.00,,,0.00,VWS V14.00,2013-03-23 19:30:00,
2013-03-23 14:34:00,53.5,34.3,29.91,NNE,30,6.0,15.0,48,0.00,,CLR,0.00,VWS V14.00,2013-03-23 19:34:00,
2013-03-23 14:39:00,53.5,32.7,29.91,North,11,7.0,15.0,45,0.00,,CLR,0.00,VWS V14.00,2013-03-23 19:39:00,
2013-03-23 14:44:00,53.6,33.3,29.91,NE,44,5.0,15.0,46,0.00,,CLR,0.00,VWS V14.00,2013-03-23 19:44:00,
2013-03-23 14:49:00,54.0,33.7,29.91,NNE,27,7.0,15.0,46,0.00,,CLR,0.00,VWS V14.00,2013-03-23 19:49:00,
2013-03-23 14:54:00,53.8,33.5,29.90,NNE,17,9.0,10.0,46,0.00,,CLR,0.00,VWS V14.00,2013-03-23 19:54:00,
2013-03-23 14:59:00,54.0,34.2,29.90,NNE,22,10.0,12.0,47,0.00,,,0.00,VWS V14.00,2013-03-23 19:59:00,
2013-03-23 15:00:00,54.0,33.2,29.90,NE,49,7.0,15.0,45,0.00,,,0.00,VWS V14.00,2013-03-23 20:00:00,
2013-03-23 15:04:00,53.8,34.6,29.90,NE,44,5.0,12.0,48,0.00,,,0.00,VWS V14.00,2013-03-23 20:04:00,
2013-03-23 15:09:00,53.9,33.6,29.89,NE,46,6.0,14.0,46,0.00,,,0.00,VWS V14.00,2013-03-23 20:09:00,
2013-03-23 15:14:00,53.9,33.6,29.89,SE,144,2.0,14.0,46,0.00,,,0.00,VWS V14.00,2013-03-23 20:14:00,
2013-03-23 15:19:00,54.0,33.7,29.89,NE,43,8.0,14.0,46,0.00,,CLR,0.00,VWS V14.00,2013-03-23 20:19:00,
2013-03-23 15:24:00,53.7,34.0,29.88,NNE,33,5.0,13.0,47,0.00,,CLR,0.00,VWS V14.00,2013-03-23 20:24:00,
2013-03-23 15:29:00,53.7,33.4,29.88,NE,49,3.0,10.0,46,0.00,,CLR,0.00,VWS V14.00,2013-03-23 20:29:00,
2013-03-23 15:30:00,53.9,33.6,29.89,NE,37,9.0,14.0,46,0.00,,,0.00,VWS V14.00,2013-03-23 20:30:00,
2013-03-23 15:34:00,53.8,34.1,29.89,East,87,6.0,10.0,47,0.00,,CLR,0.00,VWS V14.00,2013-03-23 20:34:00,
2013-03-23 15:39:00,53.2,33.5,29.88,NE,47,5.0,11.0,47,0.00,,CLR,0.00,VWS V14.00,2013-03-23 20:39:00,
2013-03-23 15:44:00,53.5,34.3,29.88,NE,40,12.0,13.0,48,0.00,,CLR,0.00,VWS V14.00,2013-03-23 20:44:00,
2013-03-23 15:49:00,53.7,34.5,29.88,NE,38,9.0,14.0,48,0.00,,CLR,0.00,VWS V14.00,2013-03-23 20:49:00,
2013-03-23 15:54:00,53.8,34.6,29.88,NE,40,9.0,12.0,48,0.00,,CLR,0.00,VWS V14.00,2013-03-23 20:54:00,
2013-03-23 15:59:00,53.7,34.0,29.87,NE,44,17.0,17.0,47,0.00,,CLR,0.00,VWS V14.00,2013-03-23 20:59:00,
2013-03-23 16:00:00,53.8,34.1,29.88,NE,38,7.0,14.0,47,0.00,,,0.00,VWS V14.00,2013-03-23 21:00:00,
2013-03-23 16:04:00,53.5,33.8,29.87,NNE,28,8.0,17.0,47,0.00,,CLR,0.00,VWS V14.00,2013-03-23 21:04:00,
2013-03-23 16:09:00,53.5,34.8,29.87,NNE,28,8.0,17.0,49,0.00,,CLR,0.00,VWS V14.00,2013-03-23 21:09:00,
2013-03-23 16:14:00,53.6,34.4,29.87,ENE,74,6.0,17.0,48,0.00,,CLR,0.00,VWS V14.00,2013-03-23 21:14:00,
2013-03-23 16:19:00,53.4,34.2,29.87,NE,40,6.0,17.0,48,0.00,,CLR,0.00,VWS V14.00,2013-03-23 21:19:00,
2013-03-23 16:24:00,53.3,33.1,29.87,ENE,57,7.0,13.0,46,0.00,,CLR,0.00,VWS V14.00,2013-03-23 21:24:00,
2013-03-23 16:29:00,52.9,33.2,29.86,NE,46,10.0,13.0,47,0.00,,CLR,0.00,VWS V14.00,2013-03-23 21:29:00,
2013-03-23 16:30:00,53.3,34.1,29.87,NE,45,7.0,17.0,48,0.00,,,0.00,VWS V14.00,2013-03-23 21:30:00,
2013-03-23 16:34:00,52.8,33.7,29.87,NNE,22,8.0,16.0,48,0.00,,CLR,0.00,VWS V14.00,2013-03-23 21:34:00,
2013-03-23 16:39:00,52.9,32.7,29.86,NE,40,9.0,16.0,46,0.00,,CLR,0.00,VWS V14.00,2013-03-23 21:39:00,
2013-03-23 16:44:00,53.1,34.0,29.86,NE,55,8.0,16.0,48,0.00,,CLR,0.00,VWS V14.00,2013-03-23 21:44:00,
2013-03-23 16:49:00,53.2,34.0,29.86,NE,47,3.0,16.0,48,0.00,,CLR,0.00,VWS V14.00,2013-03-23 21:49:00,
2013-03-23 16:54:00,53.2,33.5,29.86,ESE,114,5.0,12.0,47,0.00,,CLR,0.00,VWS V14.00,2013-03-23 21:54:00,
2013-03-23 16:59:00,53.0,33.3,29.86,NE,38,6.0,12.0,47,0.00,,,0.00,VWS V14.00,2013-03-23 21:59:00,
2013-03-23 17:00:00,53.2,33.5,29.86,NE,34,7.0,16.0,47,0.00,,,0.00,VWS V14.00,2013-03-23 22:00:00,
2013-03-23 17:04:00,52.6,33.5,29.86,ENE,63,11.0,18.0,48,0.00,,,0.00,VWS V14.00,2013-03-23 22:04:00,
2013-03-23 17:09:00,52.3,33.7,29.85,ENE,63,7.0,18.0,49,0.00,,,0.00,VWS V14.00,2013-03-23 22:09:00,
2013-03-23 17:14:00,52.4,33.3,29.85,NE,45,7.0,18.0,48,0.00,,,0.00,VWS V14.00,2013-03-23 22:14:00,
2013-03-23 17:19:00,52.4,32.2,29.84,ENE,77,6.0,18.0,46,0.00,,CLR,0.00,VWS V14.00,2013-03-23 22:19:00,
2013-03-23 17:24:00,52.5,33.4,29.84,ESE,109,6.0,11.0,48,0.00,,CLR,0.00,VWS V14.00,2013-03-23 22:24:00,
2013-03-23 17:29:00,52.5,32.9,29.84,East,101,2.0,13.0,47,0.00,,CLR,0.00,VWS V14.00,2013-03-23 22:29:00,
2013-03-23 17:30:00,52.5,32.9,29.84,NE,44,9.0,18.0,47,0.00,,,0.00,VWS V14.00,2013-03-23 22:30:00,
2013-03-23 17:34:00,52.2,32.1,29.84,NE,40,6.0,15.0,46,0.00,,CLR,0.00,VWS V14.00,2013-03-23 22:34:00,
2013-03-23 17:39:00,52.0,32.9,29.83,NE,55,14.0,15.0,48,0.00,,CLR,0.00,VWS V14.00,2013-03-23 22:39:00,
2013-03-23 17:44:00,52.1,32.5,29.83,ENE,71,8.0,16.0,47,0.00,,CLR,0.00,VWS V14.00,2013-03-23 22:44:00,
2013-03-23 17:49:00,51.7,32.1,29.83,NE,46,12.0,16.0,47,0.00,,CLR,0.00,VWS V14.00,2013-03-23 22:49:00,
2013-03-23 17:54:00,51.4,32.4,29.83,NE,53,15.0,15.0,48,0.00,,CLR,0.00,VWS V14.00,2013-03-23 22:54:00,
2013-03-23 17:59:00,51.0,32.5,29.82,NNE,24,7.0,18.0,49,0.00,,CLR,0.00,VWS V14.00,2013-03-23 22:59:00,
2013-03-23 18:00:00,51.5,32.0,29.83,ENE,72,3.0,16.0,47,0.00,,,0.00,VWS V14.00,2013-03-23 23:00:00,
2013-03-23 18:04:00,50.5,32.1,29.82,NE,53,12.0,18.0,49,0.00,,CLR,0.00,VWS V14.00,2013-03-23 23:04:00,
2013-03-23 18:09:00,50.3,31.9,29.82,NE,39,7.0,18.0,49,0.00,,CLR,0.00,VWS V14.00,2013-03-23 23:09:00,
2013-03-23 18:14:00,50.2,31.8,29.82,NE,49,6.0,18.0,49,0.00,,CLR,0.00,VWS V14.00,2013-03-23 23:14:00,
2013-03-23 18:19:00,50.2,32.3,29.81,NE,36,6.0,18.0,50,0.00,,CLR,0.00,VWS V14.00,2013-03-23 23:19:00,
2013-03-23 18:24:00,50.1,31.7,29.81,ENE,59,14.0,14.0,49,0.00,,CLR,0.00,VWS V14.00,2013-03-23 23:24:00,
2013-03-23 18:29:00,49.9,32.0,29.81,ENE,62,3.0,14.0,50,0.00,,CLR,0.00,VWS V14.00,2013-03-23 23:29:00,
2013-03-23 18:30:00,50.1,31.7,29.81,NE,37,10.0,18.0,49,0.00,,,0.00,VWS V14.00,2013-03-23 23:30:00,
2013-03-23 18:34:00,49.7,31.3,29.81,ENE,62,5.0,14.0,49,0.00,,CLR,0.00,VWS V14.00,2013-03-23 23:34:00,
2013-03-23 18:39:00,49.6,31.7,29.81,NE,44,7.0,14.0,50,0.00,,CLR,0.00,VWS V14.00,2013-03-23 23:39:00,
2013-03-23 18:44:00,49.5,31.6,29.81,NE,46,8.0,14.0,50,0.00,,CLR,0.00,VWS V14.00,2013-03-23 23:44:00,
2013-03-23 18:49:00,49.2,31.9,29.81,ENE,63,10.0,14.0,51,0.00,,CLR,0.00,VWS V14.00,2013-03-23 23:49:00,
2013-03-23 18:54:00,49.1,31.8,29.82,NE,43,4.0,8.0,51,0.00,,CLR,0.00,VWS V14.00,2013-03-23 23:54:00,
2013-03-23 18:59:00,49.0,31.2,29.81,NE,42,5.0,8.0,50,0.00,,CLR,0.00,VWS V14.00,2013-03-23 23:59:00,
2013-03-23 19:00:00,49.2,31.4,29.81,NE,56,5.0,14.0,50,0.00,,,0.00,VWS V14.00,2013-03-24 00:00:00,
2013-03-23 19:04:00,48.7,31.4,29.81,ENE,58,5.0,10.0,51,0.00,,CLR,0.00,VWS V14.00,2013-03-24 00:04:00,
2013-03-23 19:09:00,48.6,31.8,29.81,NE,42,4.0,10.0,52,0.00,,CLR,0.00,VWS V14.00,2013-03-24 00:09:00,
2013-03-23 19:14:00,48.5,31.7,29.81,NE,40,6.0,10.0,52,0.00,,CLR,0.00,VWS V14.00,2013-03-24 00:14:00,
2013-03-23 19:19:00,48.3,32.0,29.81,NE,44,5.0,10.0,53,0.00,,SCT120,0.00,VWS V14.00,2013-03-24 00:19:00,
2013-03-23 19:24:00,48.0,31.2,29.81,NE,35,4.0,6.0,52,0.00,,SCT120,0.00,VWS V14.00,2013-03-24 00:24:00,
2013-03-23 19:29:00,47.8,31.5,29.81,NE,36,4.0,6.0,53,0.00,,SCT120,0.00,VWS V14.00,2013-03-24 00:29:00,
2013-03-23 19:30:00,48.1,31.3,29.81,NE,46,2.0,10.0,52,0.00,,,0.00,VWS V14.00,2013-03-24 00:30:00,
2013-03-23 19:34:00,47.6,31.3,29.81,NE,51,5.0,7.0,53,0.00,,SCT120,0.00,VWS V14.00,2013-03-24 00:34:00,
2013-03-23 19:39:00,47.6,31.8,29.80,NE,53,4.0,8.0,54,0.00,,SCT120,0.00,VWS V14.00,2013-03-24 00:39:00,
2013-03-23 19:44:00,47.6,31.8,29.80,NE,47,5.0,8.0,54,0.00,,SCT120,0.00,VWS V14.00,2013-03-24 00:44:00,
2013-03-23 19:49:00,47.6,31.3,29.80,ENE,58,4.0,4.0,53,0.00,,SCT120,0.00,VWS V14.00,2013-03-24 00:49:00,
2013-03-23 19:54:00,47.7,31.4,29.80,NE,51,5.0,7.0,53,0.00,,SCT120,0.00,VWS V14.00,2013-03-24 00:54:00,
2013-03-23 19:59:00,47.6,31.8,29.80,NE,47,5.0,7.0,54,0.00,,SCT120,0.00,VWS V14.00,2013-03-24 00:59:00,
2013-03-23 20:00:00,47.7,31.9,29.80,NE,47,6.0,8.0,54,0.00,,,0.00,VWS V14.00,2013-03-24 01:00:00,
2013-03-23 20:04:00,47.5,32.2,29.80,NE,49,5.0,7.0,55,0.00,,OVC095,0.00,VWS V14.00,2013-03-24 01:04:00,
2013-03-23 20:09:00,47.4,33.0,29.79,NE,38,7.0,9.0,57,0.00,,OVC095,0.00,VWS V14.00,2013-03-24 01:09:00,
2013-03-23 20:14:00,47.2,33.2,29.80,NE,46,4.0,9.0,58,0.00,,OVC095,0.00,VWS V14.00,2013-03-24 01:14:00,
2013-03-23 20:19:00,47.0,32.6,29.80,NE,41,5.0,9.0,57,0.00,,OVC095,0.00,VWS V14.00,2013-03-24 01:19:00,
2013-03-23 20:24:00,46.9,32.5,29.81,NE,49,4.0,6.0,57,0.00,,OVC095,0.00,VWS V14.00,2013-03-24 01:24:00,
2013-03-23 20:29:00,46.9,32.5,29.80,NE,44,5.0,8.0,57,0.00,,OVC095,0.00,VWS V14.00,2013-03-24 01:29:00,
2013-03-23 20:30:00,47.0,32.6,29.81,NE,34,3.0,9.0,57,0.00,,,0.00,VWS V14.00,2013-03-24 01:30:00,
2013-03-23 20:34:00,46.9,32.0,29.80,NE,42,5.0,8.0,56,0.00,,OVC095,0.00,VWS V14.00,2013-03-24 01:34:00,
2013-03-23 20:39:00,46.9,32.5,29.81,NE,39,6.0,8.0,57,0.00,,OVC095,0.00,VWS V14.00,2013-03-24 01:39:00,
2013-03-23 20:44:00,46.9,32.5,29.79,NE,46,7.0,8.0,57,0.00,,OVC095,0.00,VWS V14.00,2013-03-24 01:44:00,
2013-03-23 20:49:00,46.8,32.8,29.79,NE,53,6.0,9.0,58,0.00,,OVC095,0.00,VWS V14.00,2013-03-24 01:49:00,
2013-03-23 20:54:00,46.6,32.6,29.79,NE,50,8.0,10.0,58,0.00,,OVC095,0.00,VWS V14.00,2013-03-24 01:54:00,
2013-03-23 20:59:00,46.5,33.0,29.79,NE,37,5.0,10.0,59,0.00,,OVC095,0.00,VWS V14.00,2013-03-24 01:59:00,
2013-03-23 21:00:00,46.7,32.7,29.79,NE,38,8.0,9.0,58,0.00,,,0.00,VWS V14.00,2013-03-24 02:00:00,
2013-03-23 21:04:00,46.5,33.0,29.79,NNE,24,7.0,10.0,59,0.00,,OVC095,0.00,VWS V14.00,2013-03-24 02:04:00,
2013-03-23 21:09:00,46.5,33.0,29.78,NE,38,8.0,11.0,59,0.00,,OVC095,0.00,VWS V14.00,2013-03-24 02:09:00,
2013-03-23 21:14:00,46.5,32.1,29.78,NE,34,8.0,11.0,57,0.00,,OVC095,0.00,VWS V14.00,2013-03-24 02:14:00,
2013-03-23 21:19:00,46.7,31.9,29.78,NNE,24,10.0,14.0,56,0.00,,OVC095,0.00,VWS V14.00,2013-03-24 02:19:00,
2013-03-23 21:24:00,46.7,31.9,29.78,NNE,30,10.0,13.0,56,0.00,,OVC095,0.00,VWS V14.00,2013-03-24 02:24:00,
2013-03-23 21:29:00,46.8,32.0,29.78,NE,41,9.0,13.0,56,0.00,,OVC095,0.00,VWS V14.00,2013-03-24 02:29:00,
2013-03-23 21:30:00,46.7,32.3,29.78,NE,40,10.0,14.0,57,0.00,,,0.00,VWS V14.00,2013-03-24 02:30:00,
2013-03-23 21:34:00,46.8,32.0,29.77,NE,40,9.0,18.0,56,0.00,,OVC095,0.00,VWS V14.00,2013-03-24 02:34:00,
2013-03-23 21:39:00,46.7,31.4,29.77,NE,40,8.0,19.0,55,0.00,,OVC095,0.00,VWS V14.00,2013-03-24 02:39:00,
2013-03-23 21:44:00,46.7,31.4,29.76,NE,35,6.0,19.0,55,0.00,,OVC075,0.00,VWS V14.00,2013-03-24 02:44:00,
2013-03-23 21:49:00,46.7,31.4,29.77,ENE,71,11.0,19.0,55,0.00,,OVC075,0.00,VWS V14.00,2013-03-24 02:49:00,
2013-03-23 21:54:00,46.7,31.4,29.77,NE,50,4.0,14.0,55,0.00,,OVC075,0.00,VWS V14.00,2013-03-24 02:54:00,
2013-03-23 21:59:00,46.5,32.1,29.77,NNE,32,5.0,14.0,57,0.00,,OVC075,0.00,VWS V14.00,2013-03-24 02:59:00,
2013-03-23 22:00:00,46.7,31.4,29.77,NE,38,8.0,19.0,55,0.00,,,0.00,VWS V14.00,2013-03-24 03:00:00,
2013-03-23 22:04:00,46.3,31.9,29.77,NE,48,6.0,19.0,57,0.00,,-RA,0.00,VWS V14.00,2013-03-24 03:04:00,
2013-03-23 22:09:00,46.0,32.1,29.78,NE,36,6.0,19.0,58,0.00,,-RA,0.00,VWS V14.00,2013-03-24 03:09:00,
2013-03-23 22:14:00,45.9,31.5,29.78,NNE,19,8.0,19.0,57,0.00,,-RA,0.00,VWS V14.00,2013-03-24 03:14:00,
2013-03-23 22:19:00,45.9,31.5,29.77,ENE,71,10.0,19.0,57,0.00,,-RA,0.00,VWS V14.00,2013-03-24 03:19:00,
2013-03-23 22:24:00,45.8,31.5,29.77,NE,44,6.0,13.0,57,0.00,,-RA,0.00,VWS V14.00,2013-03-24 03:24:00,
2013-03-23 22:29:00,45.8,31.0,29.77,NE,38,5.0,13.0,56,0.00,,-RA,0.00,VWS V14.00,2013-03-24 03:29:00,
2013-03-23 22:30:00,45.8,31.9,29.77,NE,44,10.0,19.0,58,0.00,,,0.00,VWS V14.00,2013-03-24 03:30:00,
2013-03-23 22:34:00,45.7,31.4,29.77,NE,46,3.0,13.0,57,0.00,,-RA,0.00,VWS V14.00,2013-03-24 03:34:00,
2013-03-23 22:39:00,45.6,30.8,29.77,NE,42,7.0,13.0,56,0.00,,OVC075,0.00,VWS V14.00,2013-03-24 03:39:00,
2013-03-23 22:44:00,45.6,31.3,29.77,NE,38,11.0,13.0,57,0.00,,OVC075,0.00,VWS V14.00,2013-03-24 03:44:00,
2013-03-23 22:49:00,45.5,30.7,29.76,NE,46,8.0,14.0,56,0.00,,OVC075,0.00,VWS V14.00,2013-03-24 03:49:00,
2013-03-23 22:54:00,45.4,30.6,29.76,ENE,74,10.0,14.0,56,0.00,,OVC075,0.00,VWS V14.00,2013-03-24 03:54:00,
2013-03-23 22:59:00,45.4,30.6,29.76,NE,54,7.0,16.0,56,0.00,,OVC075,0.00,VWS V14.00,2013-03-24 03:59:00,
2013-03-23 23:00:00,45.4,30.6,29.76,NE,44,9.0,16.0,56,0.00,,OVC075,0.00,VWS V14.00,2013-03-24 04:00:00,
2013-03-23 23:05:00,45.3,30.5,29.76,ENE,62,5.0,16.0,56,0.00,,OVC075,0.00,VWS V14.00,2013-03-24 04:05:00,
2013-03-23 23:10:00,45.2,30.5,29.75,NE,44,10.0,16.0,56,0.00,,OVC075,0.00,VWS V14.00,2013-03-24 04:10:00,
2013-03-23 23:15:00,45.1,30.8,29.76,ENE,67,10.0,16.0,57,0.00,,OVC075,0.00,VWS V14.00,2013-03-24 04:15:00,
2013-03-23 23:20:00,45.0,30.7,29.76,East,83,5.0,16.0,57,0.00,,OVC075,0.00,VWS V14.00,2013-03-24 04:20:00,
2013-03-23 23:25:00,44.9,30.6,29.75,NNE,23,6.0,17.0,57,0.00,,OVC075,0.00,VWS V14.00,2013-03-24 04:25:00,
2013-03-23 23:30:00,44.9,30.6,29.74,NE,41,8.0,17.0,57,0.00,,OVC075,0.00,VWS V14.00,2013-03-24 04:30:00,
2013-03-23 23:35:00,44.7,30.9,29.75,NE,34,7.0,17.0,58,0.00,,OVC075,0.00,VWS V14.00,2013-03-24 04:35:00,
2013-03-23 23:40:00,44.7,30.9,29.76,NE,40,6.0,17.0,58,0.00,,OVC065,0.00,VWS V14.00,2013-03-24 04:40:00,
2013-03-23 23:45:00,44.6,30.8,29.76,NE,38,11.0,17.0,58,0.00,,OVC065,0.00,VWS V14.00,2013-03-24 04:45:00,
2013-03-23 23:50:00,44.5,30.7,29.76,ENE,67,4.0,17.0,58,0.00,,OVC065,0.00,VWS V14.00,2013-03-24 04:50:00,
2013-03-23 23:55:00,44.4,31.0,29.77,NE,53,8.0,11.0,59,0.00,,OVC065,0.00,VWS V14.00,2013-03-24 04:55:00,